Regional Weather Roundup
Issued by NWS

Home | Current Version | Previous Version | Graphics & Text | Print | Product List | Glossary On
Versions: 1 2 3 4 5 6 7 8 9 10 11 12 13 14 15 16 17 18 19 20 21 22 23 24 25 26 27 28 29 30 31 32 33 34 35 36 37 38 39 40 41 42 43 44 45 46 47 48 49 50
000
ASUS45 KABQ 291310
RWRNM
WEATHER ROUNDUP FOR NEW MEXICO
NATIONAL WEATHER SERVICE ALBUQUERQUE NM
600 AM MST THU JAN 29 2015

NOTE: "FAIR" MEANS FEW OR NO CLOUDS BELOW 12,000 FEET AGL WITH NO
       SIGNIFICANT WEATHER OR OBSTRUCTIONS TO VISION.

      THIS PRODUCT IS RELEASED AS TWO VERSIONS.  ONE VERSION NEAR
      THE TOP OF THE HOUR CONTAINING PRELIMINARY DATA FROM ALBUQUERQUE
      AND OTHER STATIONS.  A FINAL VERSION WITH ADDITIONAL DATA IS
      ISSUED ABOUT 10 MINUTES AFTER THE HOUR.

NMZ501-503-504-510>518-291400-
NORTHWEST PLATEAU/NORTHCENTRAL MOUNTAINS

CITY           SKY/WX    TMP DP  RH WIND       PRES   REMARKS
FARMINGTON     CLEAR     32  26  78 E5        30.31R WCI  27
LOS ALAMOS     CLOUDY    37  27  69 S8        30.35S WCI  30
SANTA FE       CLOUDY    37  27  67 CALM      30.34R
TAOS           CLOUDY    32  25  74 N7        30.35S WCI  26
ANGEL FIRE     FAIR      26  24  91 CALM      30.41S

$$
NMZ402-403-502-505>509-291400-
WESTCENTRAL MOUNTAINS/SOUTHWEST MOUNTAINS

CITY           SKY/WX    TMP DP  RH WIND       PRES   REMARKS
GALLUP         CLOUDY    34  30  85 CALM      30.31S
GRANTS         CLOUDY    31  30  93 CALM      30.35R
SILVER CITY    MOCLDY    39  32  75 NW5       30.25R

$$
NMZ407-409-411-412-291400-
SOUTHERN DESERTS

CITY           SKY/WX    TMP DP  RH WIND       PRES   REMARKS
LORDSBURG      FAIR      37  32  81 S5        30.20R WCI  34
DEMING         PTCLDY    39  32  76 W3        30.22R
LAS CRUCES     PTCLDY    47  35  62 N5        30.23R
HOLLOMAN AFB   CLOUDY    43  37  80 SW2       30.21R
ALAMOGORDO     MOCLDY    41  36  81 SE6       30.23R
T OR C         CLOUDY    47  33  58 N6        30.25R

$$
NMZ519>523-291400-
CENTRAL VALLEYS/CENTRAL HIGHLANDS

CITY           SKY/WX    TMP DP  RH WIND       PRES   REMARKS
ALBUQUERQUE    CLOUDY    48  29  47 E14       30.32R
DOUBLE EAGLE   CLEAR     41  28  60 NE6       30.34R
MORIARTY ARPT  FAIR      34  30  84 S3        30.41R
CLINES CORNERS CLOUDY    37  28  70 E15       30.37R WCI  28
BELEN          FAIR      37  32  82 N5        30.32S WCI  33
SOCORRO        FAIR      42  32  67 NE7       30.31R

$$
NMZ524>526-539-540-291400-
SOUTHCENTRAL MOUNTAINS

CITY           SKY/WX    TMP DP  RH WIND       PRES   REMARKS
RUIDOSO        CLOUDY    37  28  70 W9        30.37R WCI  31

$$
NMZ527>531-291400-
NORTHEAST HIGHLANDS/NORTHEAST PLAINS

CITY           SKY/WX    TMP DP  RH WIND       PRES   REMARKS
LAS VEGAS      CLOUDY    34  27  75 NE8       30.40R WCI  27
RATON          CLOUDY    37  27  67 NE14      30.40R WCI  28
CLAYTON        CLOUDY    41  30  65 N16       30.41R

$$
NMZ532>537-291400-
EASTCENTRAL PLAINS

CITY           SKY/WX    TMP DP  RH WIND       PRES   REMARKS
TUCUMCARI      PTCLDY    40  33  76 E3        30.37R
CANNON AFB     PTCLDY    40  32  73 NE17      30.33R WCI  32
CLOVIS AIRPORT PTCLDY    39  32  75 N16       30.34R WCI  30

$$
NMZ028-029-538-291400-
SOUTHEAST PLAINS

CITY           SKY/WX    TMP DP  RH WIND       PRES   REMARKS
ROSWELL        CLOUDY    47  34  60 N18       30.32R
ARTESIA        CLOUDY    46  37  71 N21       30.29R
CARLSBAD       MOCLDY    49  37  63 NW14      30.25R
HOBBS          CLEAR     41  36  81 N15G21    30.27R


$$


USA.gov is the U.S. government's official web portal to all federal, state and local government web resources and services.